Back to catalog

STARLINK-34434

AliveCommunicationsVLEO
NORAD 64422·PAYLOAD·🇺🇸 United States

Launched Jun 17, 2025 from Vandenberg Space Force Base

Loading…

Next Passes (next 24 hours)

TLE

FreshSource: CelesTrak SupGP

Epoch: Sep 14, 2026, 21:47 UTC

1 64422C 25129L   26257.90812500  .00010312  00000+0  35893-3 0  2578
2 64422  69.9992 315.9116 0003415 268.9965 212.2748 15.29554661    19

Track STARLINK-34434 in real time with AllMySat

Download on the App Store